User: anonymous   Login
Location: Nebula Knoll Observatory
(43.6666°N, 71.0000°W)
Time: 00:00:33
(UTC-05:00)
Language:

Cosmos 1782 - Orbit

View from above orbital plane
View from above orbital plane
View from above satellite
View from above satellite

Ground track
Ground track

The orbit data is extracted from the following two-line orbital elements,

1 16986U 86074A   17022.78452374 +.00000183 +00000-0 +10386-4 0  9991
2 16986 082.5055 262.6543 0012885 112.9624 247.2965 15.06411383627781
Epoch (UTC): 22 January 2017 18:49:42
Eccentricity: 0.0012885
inclination: 82.5055°
perigee height: 538 km
apogee height: 556 km
right ascension of ascending node: 262.6543°
argument of perigee: 112.9624°
revolutions per day: 15.06411383
mean anomaly at epoch: 247.2965°
orbit number at epoch: 62778

The dashed part of the orbit path shows where the satellite is in the earth's shadow,  

DLR